Regional Weather Roundup
Issued by NWS Grand Forks, ND

Home | Current Version | Previous Version | Graphics & Text | Print | Product List | Glossary On
Versions: 1 2 3 4 5 6 7 8 9 10 11 12 13 14 15 16 17 18 19 20 21 22 23 24 25 26 27 28 29 30 31 32 33 34 35 36 37 38 39 40 41 42 43 44 45 46 47 48 49 50
078
ASUS43 KFGF 041331
RWRFGF
PRAIRIE TO PINES  WEATHER ROUNDUP
NATIONAL WEATHER SERVICE EASTERN NORTH DAKOTA/GRAND FORKS ND
700 AM CST SUN DEC 04 2016

 **SATELLITE DATA USED TO AUGMENT SKY COVER AT AUTOMATED STATIONS**
 *****  WEATHER ACROSS EASTERN NORTH DAKOTA  *****

CITY           SKY/WX    TMP DP  RH WIND       PRES   REMARKS
GRAND FORKS    CLOUDY    34  32  92 S14       29.71  WCI  25
GRAND FRKS AFB CLOUDY    32  32 100 SW10      29.70S WCI  24
GRAND FRKS NWS   N/A     32 N/A N/A S12         N/A  WCI  23
DEVILS LAKE    CLOUDY    26  24  92 W18       29.68R WCI  13
FARGO          LGT SNOW  34  32  92 S10       29.75F FOG
WAHPETON ARPT  CLOUDY    32  32 100 S13       29.77F WCI  22
$$

 ***** WEATHER ACROSS CENTRAL AND WESTERN NORTH DAKOTA  *****

CITY           SKY/WX    TMP DP  RH WIND       PRES   REMARKS
BISMARCK       CLOUDY    32  30  92 W9        29.76S WCI  24
MINOT          CLOUDY    27  24  89 W14       29.70S WCI  16
JAMESTOWN      CLOUDY    33  31  92 W7        29.70F
MINOT AFB      CLOUDY    27  23  86 NW15      29.68F WCI  15
GARRISON         N/A     29  26  89 W8        29.71F WCI  21
WILLISTON      CLEAR     21  18  88 SW7       29.76S WCI  12
DICKINSON      CLEAR     20  16  84 W14       29.75F WCI   7
HETTINGER      CLEAR     20  15  81 NW9       29.81S WCI   9
$$

 *****  OTHER AIRPORT OBSERVATIONS IN OUR AREA  *****

CITY           SKY/WX    TMP DP  RH WIND       PRES   REMARKS
WALHALLA       MIX PCPN  32  32 100 S6        29.66F
GRAFTON AIRPOR CLOUDY    32  32 100 S12G17    29.71S FOG     WCI  23
VALLEY CITY AR FLURRIES  32  32 100 SW8       29.73S WCI  25
CANDO          CLOUDY    27  27 100 W16       29.68S WCI  14
CAVALIER APRT    N/A     32  32 100 S13       29.67F FOG     WCI  22
GWINNER        CLOUDY    32  32 100 SW12      29.74F WCI  23
SHEYENNE NWR     N/A     32  29  90 SW7       29.95S
ROLLA          CLOUDY    27  27 100 NW12      29.63F WCI  16
 ***** THE ABOVE OBSERVATIONS ARE NON NWS ARE NOT QUALITY
       CONTROLLED AND MAY MIS-REPORT RAIN FOR SNOW...
$$

  *****  WEATHER ACROSS NORTHERN MINNESOTA  *****

CITY           SKY/WX    TMP DP  RH WIND       PRES   REMARKS
FLAG ISLAND    CLOUDY    28  27  93 SE16G25   29.79F WCI  17
WARROAD        CLOUDY    30  27  86 SE10      29.78F WCI  21
ROSEAU         CLOUDY    32  28  86 SE13      29.76F WCI  22
HALLOCK        LGT SNOW  34  32  93 SE15      29.70F WCI  24
THF RVR FALLS  LGT SNOW  32  31  96 SE14      29.75F FOG     WCI  22
BAUDETTE       CLOUDY    29  25  85 SE14      29.81F WCI  18
WASKISH        CLOUDY    30  27  86 SE7       29.82F WCI  23
CROOKSTON      LGT SNOW  34  32  93 S16       29.74F WCI  23
STEPHEN NDAWN    N/A     34  32  93 S13         N/A  WCI  25
GREENBUSH NDAW   N/A     32  30  93 SE14        N/A  WCI  22
$$
  *****  WEATHER ACROSS CENTRAL AND WEST MINNESOTA  *****

CITY           SKY/WX    TMP DP  RH WIND       PRES   REMARKS
FOSSTON        CLOUDY    30  28  93 SE12      29.76F WCI  21
BEMIDJI        CLOUDY    30  29  98 SE13      29.79F FOG     WCI  20
PARK RAPIDS    CLOUDY    32  28  85 SE17      29.80F FOG     WCI  21
ELBOW LAKE     CLOUDY    32  32 100 S14       29.81S FOG     WCI  22
WADENA         CLOUDY    32  30  93 S10       29.80F WCI  24
DETROIT LAKES  CLOUDY    34  32  93 S14       29.77F WCI  24
MOORHEAD       LGT SNOW  32  30  93 S14       29.76F WCI  22
FERGUS FALLS   LGT SNOW  34  34 100 S13       29.82F WCI  25
MORRIS MN      CLOUDY    34  32  93 S12       29.80F FOG
STAPLES        MIX PCPN  30  30 100 SE8       29.82F WCI  23
$$
  *****  WEATHER ELSEWHERE ACROSS MINNESOTA  *****

CITY           SKY/WX    TMP DP  RH WIND       PRES   REMARKS
DULUTH         LGT SNOW  28  26  92 SE10      29.94F FOG     WCI  19
INTRNTL FALLS  CLOUDY    27  24  89 SE9       29.87F FOG     WCI  18
ELY            FLURRIES  27  25  93 SE9       29.94F WCI  17
CLOQUET        LGT SNOW  27  25  93 E8        29.92F WCI  18
WHEATON        CLOUDY   N/A N/A N/A S9        29.80F
BRAINERD       CLOUDY    30  29  96 SE12      29.86F FOG     WCI  20
HIBBING        LGT SNOW  26  24  92 SE10      29.90F FOG     WCI  16
ALEXANDRIA     CLOUDY    33  32  96 S14       29.82F WCI  23
SAINT CLOUD    CLOUDY    32  32 100 SE9       29.88F FOG     WCI  24
MINNEAPOLIS    LGT SNOW  32  30  92 SE10      29.93F FOG     WCI  24
$$

  *****  WEATHER ACROSS SOUTH DAKOTA  *****

CITY           SKY/WX    TMP DP  RH WIND       PRES   REMARKS
SIOUX FALLS    CLOUDY    32  32 100 SW6       29.87F FOG
BROOKINGS      PTCLDY    30  28  93 SW12      29.82F WCI  21
WATERTOWN      MOCLDY    30  27  88 SW13      29.79S WCI  20
HURON          CLEAR     26  23  88 SW8       29.85R WCI  18
SISSETON         N/A     34  29  82 SW9       29.77F
ABERDEEN       CLEAR     29  27  92 SW9       29.79F WCI  20
MITCHELL       CLEAR     31  26  82 W10       29.89R WCI  22
PIERRE         MOCLDY    28  23  81 W8        29.86S WCI  20
MOBRIDGE       CLEAR     27  20  75 NW7       29.78F WCI  19
RAPID CITY     PTCLDY    22  16  78 NW8       29.88F WCI  12
$$

  *****  SOME WEATHER IN NEARBY STATES *****

CITY           SKY/WX    TMP DP  RH WIND       PRES   REMARKS
GLASGOW MT     PTCLDY    18  15  88 S8        29.75F WCI   8
GREAT FALLS MT CLOUDY    32  20  61 SW17      29.72F WCI  21
CHEYENNE WY    CLEAR     25   8  48 W22       29.95S WCI  10
SCOTTSBLUFF NE CLEAR     19  11  70 NW5       30.00R WCI  12
OMAHA NE       CLOUDY    34  30  85 SW5       29.99R
DES MOINES IA  LGT SNOW  34  33  96 S8        30.00S VSB 3/4
DAVENPORT IA   LGT SNOW  31  30  96 SE12      30.09F VSB 3/4 WCI  22
CHICAGO IL     CLOUDY    32  26  78 CALM      30.17F
EAU CLAIRE WI  LGT SNOW  30  29  96 SE8       30.00F FOG     WCI  22
LA CROSSE WI   LGT SNOW  34  31  88 SE10      30.01F FOG
$$

  *****  SOME NATIONAL WEATHER *****

CITY           SKY/WX    TMP DP  RH WIND       PRES   REMARKS
LA GUARDIA NY  PTCLDY    41  24  51 NW13      30.22S
RALEIGH NC     CLOUDY    42  30  62 E5        30.31R
ATLANTA GA     RAIN      45  43  93 E13       30.17R FOG
NEW ORLEANS LA CLOUDY    61  61 100 CALM      29.89F
OKLAHOMA CITY  CLOUDY    44  43  96 NW6       30.03R
ALBUQUERQUE NM CLOUDY    29  13  51 N10       30.14R WCI  20
SALT LAKE CITY PTCLDY    28  19  69 SE9       30.18F WCI  19
LOS ANGELES CA CLEAR     47  31  53 SE5       30.06R
BOISE ID       CLOUDY    40  28  62 SE10      30.02F
SEATTLE WA     CLOUDY    43  39  86 S5        29.98F
$$

*** WEATHER ACROSS MANITOBA...SASKATCHEWAN AND ONTARIO ***
                ***ONTARIO***

CITY           SKY/WX    TMP DP  RH WIND       PRES   REMARKS
GERALDTON      FLURRIES  21  19  93 E6        30.10F WCI  14
THUNDER BAY    CLOUDY    32  25  74 S8        30.05F WCI  25
SIOUX LOOKOUT  MOCLDY    23  21  93 SE6       29.92F WCI  16
TORONTO        MOCLDY    34  27  75 NE2       30.25R
BIG TROUT LK   CLOUDY    19  18  93 S13G18    29.98F WCI   7
PICKLE LAKE    MOCLDY    19  19 100 SE7       29.97F WCI  10
DRYDEN         LGT SNOW  25  25 100 SE9       29.88F WCI  15
KENORA         LGT SNOW  27  25  93 SE9       29.82F WCI  17
$$
                *** MANITOBA***

CITY           SKY/WX    TMP DP  RH WIND       PRES   REMARKS
BRANDON        LGT SNOW  27  25  93 W6        29.64F WCI  20
DAUPHIN        LGT SNOW  27  27 100 S2        29.67S
ISLAND LAKE    NOT AVBL
PILOT MOUND      N/A     28  28 100 SW7         N/A  WCI  21
THE PAS        FOG       27  25  93 S5        29.65F VSB 1   WCI  21
THOMPSON       FLURRIES  21  18  86 VRB3      29.74
WINNIPEG       FRZ DRZL  30  28  93 SE14      29.71F WCI  20
LYNN LAKE      CLOUDY    19  19 100 SE7       29.64F WCI  10
CHURCHILL      MOCLDY     5   3  92 S9        29.92F WCI  -9
GILLAM         CLOUDY    12  10  92 SE3       29.87F
$$
                ***SASKATCHEWAN***

CITY           SKY/WX    TMP DP  RH WIND       PRES   REMARKS
ESTEVAN        FLURRIES  25  25 100 NW12G18   29.70S WCI  14
KINDERSLEY     PTCLDY     9   5  85 NW5       29.65F WCI   0
LLOYDMINSTER   CLEAR     18  12  79 W12       29.61S WCI   5
PRINCE ALBERT  CLOUDY    21  19  93 W8        29.64S FOG     WCI  12
REGINA         FOG       23  21  93 SW5       29.69S VSB 1/4 WCI  17
YORKTON        CLOUDY    25  25 100 NW5       29.66F FOG     WCI  19
N. BATTLEFORD  MOCLDY    16  16 100 SW5       29.66F WCI   9
LA RONGE       CLOUDY    25  21  86 SW8       29.58S WCI  16
SASKATOON      PTCLDY    16  12  86 SW6       29.67S WCI   7
SWIFT CURRENT  CLOUDY    19  16  86 SW12      29.63F WCI   7
$$
NOTE: THESE ARE AUTOMATED STATIONS WITH LIMITED QUALITY CONTROL
      "FAIR" INDICATES FEW OR NO CLOUDS BELOW 12,000 FEET WITH NO
      SIGNIFICANT WEATHER AND/OR OBSTRUCTIONS TO VISIBILITY.
      SKY/WX - SKY CONDITION AND SIGNIFICANT WEATHER.
      TMP - AIR TEMPERATURE.    DP   - DEWPOINT TEMPERATURE.
      RH  - RELATIVE HUMIDITY.  PRES - PRESSURE.
      HX  - HEAT INDEX.         WCI  - WIND CHILL INDEX.
$




USA.gov is the U.S. government's official web portal to all federal, state and local government web resources and services.